GW4151 Weather Reports


time (UTC)temp
C
wind
direction
speed
KPH
gust
KPH
rain 1hr
cm
rain 24hr
cm
rain mn
cm
humidity
%
barometer
mb
20260902164534 31 213 3.2 4.8 0.00 0.00 0.00 72 994.1
20260902163033 30 229 3.2 6.4 0.00 0.00 0.00 75 994.2
20260902161529 30 91 6.4 11.3 0.00 0.00 0.00 76 994.0
20260902160027 30 165 3.2 4.8 0.00 0.00 0.00 78 994.1
20260902154526 30 122 3.2 4.8 0.00 0.00 0.00 77 994.0
20260902153027 28 155 3.2 4.8 0.00 0.00 0.00 77 994.3
20260902151526 30 142 3.2 9.7 0.00 0.00 0.00 76 994.1
20260902150021 28 178 1.6 1.6 0.00 0.00 0.00 79 994.2
20260902144519 28 256 4.8 9.7 0.00 0.00 0.00 80 994.5
20260902143016 27 198 3.2 4.8 0.00 0.00 0.00 81 994.3
20260902141512 27 231 6.4 9.7 0.00 0.00 0.00 84 994.5
20260902140009 27 35 3.2 4.8 0.00 0.00 0.00 86 994.7
20260902134505 26 176 3.2 11.3 0.00 0.00 0.00 89 994.9
20260902133001 27 274 4.8 9.7 0.00 0.00 0.00 86 994.6
20260902131458 26 172 1.6 4.8 0.00 0.00 0.00 87 993.7
20260902125954 25 120 3.2 3.2 0.00 0.00 0.00 92 994.0
20260902124454 24 196 0.0 3.2 0.00 0.00 0.00 93 994.1
20260902122949 23 156 0.0 0.0 0.00 0.00 0.00 95 994.5
20260902121447 23 173 1.6 1.6 0.00 0.00 0.00 97 994.2
20260902115943 22 172 0.0 0.0 0.00 0.00 0.00 98 994.6
20260902114443 22 180 0.0 0.0 0.00 0.00 0.00 98 994.6
20260902112939 22 210 0.0 1.6 0.00 0.00 0.00 98 994.6
20260902111440 22 183 0.0 0.0 0.00 0.00 0.00 97 994.6
20260902105937 23 183 0.0 0.0 0.00 0.00 0.00 96 994.2
20260902104434 23 212 1.6 1.6 0.00 0.00 0.00 95 994.3
20260902102930 23 203 0.0 1.6 0.00 0.00 0.00 95 994.0
20260902101429 23 201 0.0 1.6 0.00 0.00 0.00 94 994.2
20260902095924 23 197 0.0 3.2 0.00 0.00 0.00 95 994.3
20260902094420 23 219 0.0 3.2 0.00 0.00 0.00 94 994.1
20260902092920 24 201 0.0 0.0 0.00 0.00 0.00 94 994.3
20260902091417 24 237 0.0 0.0 0.00 0.00 0.00 94 994.5
20260902085912 24 189 0.0 3.2 0.00 0.00 0.00 92 994.4
20260902084411 25 192 1.6 3.2 0.00 0.00 0.00 92 993.8
20260902082907 25 197 1.6 1.6 0.00 0.00 0.00 91 993.7
20260902081407 25 211 3.2 9.7 0.00 0.00 0.00 91 993.7
20260902075903 25 234 3.2 6.4 0.00 0.00 0.00 90 993.5
20260902074402 25 209 1.6 6.4 0.00 0.00 0.00 90 993.8
20260902072900 25 249 1.6 4.8 0.00 0.00 0.00 90 993.8
20260902071358 25 174 0.0 1.6 0.00 0.00 0.00 91 993.8
20260902065854 25 219 3.2 3.2 0.00 0.00 0.00 92 993.9
20260902064353 25 213 1.6 3.2 0.00 0.00 0.00 93 993.7
20260902062848 25 224 0.0 1.6 0.00 0.00 0.00 95 993.8
20260902061348 25 234 0.0 0.0 0.00 0.00 0.00 96 993.7
20260902055847 25 195 0.0 0.0 0.00 0.00 0.00 96 993.7
20260902054346 24 186 0.0 0.0 0.00 0.00 0.00 98 993.5
20260902052841 24 197 0.0 0.0 0.00 0.00 0.00 98 993.6
20260902051337 25 178 0.0 0.0 0.00 0.00 0.00 97 993.6
20260902045838 25 192 0.0 0.0 0.00 0.00 0.00 97 993.8
20260902044337 25 172 0.0 4.8 0.00 0.00 0.00 96 993.9
20260902042832 25 158 3.2 4.8 0.00 0.00 0.00 96 993.7
20260902041327 24 166 0.0 0.0 0.00 0.00 0.00 95 993.8
20260902035826 23 232 4.8 4.8 0.00 0.03 0.03 97 993.7
20260902034322 23 212 1.6 1.6 0.00 0.00 0.00 97 994.1
20260902032820 23 182 0.0 0.0 0.00 0.00 0.00 98 994.0
20260902031317 23 142 0.0 0.0 0.00 0.00 0.00 98 993.8
20260902025812 23 128 0.0 0.0 0.00 0.00 0.00 98 993.9
20260902024309 23 166 0.0 0.0 0.00 0.00 0.00 97 994.0
20260902022805 23 171 0.0 0.0 0.00 0.00 0.00 97 994.1
20260902021302 23 180 0.0 0.0 0.00 0.00 0.00 97 994.1
20260902015801 23 182 0.0 1.6 0.00 0.00 0.00 97 994.0
20260902014302 23 174 0.0 0.0 0.00 0.00 0.00 96 993.9
20260902012757 23 172 0.0 0.0 0.00 0.00 0.00 96 993.9
20260902011254 23 191 0.0 0.0 0.00 0.00 0.00 96 993.7
20260902005753 23 170 0.0 0.0 0.00 0.00 0.00 95 993.4
20260902004250 23 159 0.0 0.0 0.00 0.00 0.00 95 993.1
20260902002748 24 186 0.0 1.6 0.00 0.00 0.00 94 993.2
20260902001243 24 205 1.6 1.6 0.00 0.00 0.00 92 993.5
20260901235738 24 221 0.0 1.6 0.00 0.00 0.00 91 994.1
20260901234233 25 242 1.6 4.8 0.00 0.00 0.00 90 994.1
20260901232730 25 274 8.0 9.7 0.00 0.00 0.00 87 993.9
20260901231229 26 173 4.8 9.7 0.00 0.00 0.00 85 994.3
20260901225726 26 208 4.8 9.7 0.00 0.00 0.00 86 994.5
20260901224224 27 228 1.6 3.2 0.00 0.00 0.00 85 994.0
20260901222722 27 196 1.6 6.4 0.00 0.00 0.00 84 994.0
20260901221221 27 178 1.6 6.4 0.00 0.00 0.00 83 993.6
20260901215719 28 200 4.8 9.7 0.00 0.00 0.00 82 994.5
20260901214217 28 241 3.2 9.7 0.00 0.00 0.00 81 994.3
20260901212718 28 278 8.0 9.7 0.00 0.00 0.00 79 994.4
20260901211216 28 237 4.8 6.4 0.00 0.00 0.00 77 994.4
20260901205714 30 239 9.7 14.5 0.00 0.00 0.00 75 994.3
20260901204211 30 298 9.7 12.9 0.00 0.00 0.00 75 994.1
20260901202706 30 259 4.8 12.9 0.00 0.00 0.00 74 994.0
20260901201203 31 257 12.9 16.1 0.00 0.00 0.00 73 994.1
20260901195701 30 236 8.0 9.7 0.00 0.00 0.00 76 994.0
20260901194158 31 224 11.3 16.1 0.00 0.00 0.00 74 993.9
20260901192654 32 255 4.8 14.5 0.00 0.00 0.00 73 993.9
20260901191153 31 178 3.2 9.7 0.00 0.00 0.00 75 993.9
20260901185653 31 202 4.8 6.4 0.00 0.00 0.00 75 994.3
20260901184148 30 267 6.4 11.3 0.00 0.00 0.00 78 994.6
20260901182646 30 187 4.8 6.4 0.00 0.00 0.00 78 994.4
20260901181145 28 215 4.8 6.4 0.00 0.00 0.00 81 994.1
20260901175644 28 197 1.6 6.4 0.00 0.00 0.00 81 994.4
20260901174142 28 257 4.8 16.1 0.00 0.00 0.00 82 995.1
20260901172639 29 239 3.2 9.7 0.00 0.00 0.00 79 994.9
20260901171136 30 285 4.8 12.9 0.00 0.00 0.00 77 994.8
20260901165636 29 199 3.2 12.9 0.00 0.00 0.00 79 994.7